Weather WX

World > North America > United States > Mississippi

Eastabuchie, Mississippi Regional Weather

Lat: 31.63N, Lon: 89.16W
Wx Zone: MSZ066
Warning FLW WEATHER ALERT - (More Info. Click Here) Warning
Feedback

Eastabuchie, MS Regional Weather

Expires:201906241400;;001155
ASUS44 KJAN 241310
RWRMS 

MISSISSIPPI HOURLY WEATHER ROUNDUP
NATIONAL WEATHER SERVICE JACKSON MS
800 AM CDT MON JUN 24 2019

NOTE: "FAIR: INDICATES FEW OR NO CLOUDS BELOW 12,000 FEET WITH NO
SIGNIFICANT WEATHER AND/OR OBSTRUCTIONS TO VISIBILITY.


MSZ059>079-241400-
SOUTH MISSISSIPPI
  
CITY           SKY/WX    TMP DP  RH WIND       PRES   REMARKS
BROOKHAVEN     FAIR      70  66  88 E7        30.01R                  
HATTIESBURG    FAIR      75  71  87 SW8       29.98R                  
LAUREL         PTSUNNY   74  71  90 W13       29.96R                  
MCCOMB         FAIR      70  67  90 W6        30.00R                  
NATCHEZ        LGT RAIN  68  67  96 SW5       30.01R                  
PINE BELT      PTSUNNY   73  71  93 W6        29.99R                  
$$


SKY/WX - Weather  TMP - Temperature  DP - Dew Point  RH - Relative Humidity
WIND - Wind Direction/Speed PRES - Barometric Pressure VSB - Visibility
WCI - Wind Chill Index E13G22 Wind - East Wind 13 mph/Gusts of 22 mph